Tracking 18843 objects as of 20-November-2017
HD Live streaming from Space Station
objects crossing your sky now

COSMOS 2251 DEB

Track COSMOS 2251 DEB now!
10-day predictions


NORAD ID: 35970
Int'l Code: 1993-036AVL
Perigee: 677.3 km
Apogee: 735.4 km
Inclination: 74.0 °
Period: 98.8 minutes
Semi major axis: 7077 km
RCS: 0.0106 m2 (small)
Launch date: June 16, 1993
Source: Commonwealth of Independent States (former USSR) (CIS)
Launch site: PLESETSK MISSILE AND SPACE COMPLEX (PKMTR)

Note: This is SATELLITE DEBRIS
aabbcc
Your satellite tracking list
Your tracking list is empty




NASA's NSSDC Master Catalog

Two Line Element Set (TLE):
1 35970U 93036AVL 17321.16211482  .00001029  00000-0  22727-3 0  9999
2 35970  74.0409 129.5752 0041046 262.7088  96.9410 14.58130016435830
Source of the keplerian elements: AFSPC